This is the latest recevied weather packets stored in our database for station/object K8JCL-13. If no packets are shown the sender has not sent any weather packets the latest 10 day(s).
| Time | Temp. | Humidity | Pressure | Rain* | Wind** | Luminosity | Snow |
|---|---|---|---|---|---|---|---|
| 1777979476 | 12.78° C | 99% | 1007.2 hPa | 0 mm | - | 5 W/m² | - |
| 1777979172 | 12.78° C | 99% | 1007.3 hPa | 0 mm | - | 5 W/m² | - |
| 1777978870 | 12.78° C | 99% | 1007.4 hPa | 0 mm | - | 8 W/m² | - |
| 1777978566 | 12.78° C | 99% | 1007.5 hPa | 0 mm | - | 6 W/m² | - |
| 1777978262 | 12.78° C | 99% | 1007.1 hPa | 0 mm | - | 3 W/m² | - |
| 1777977959 | 12.78° C | 99% | 1007.6 hPa | 1.78 mm | - | 2 W/m² | - |
| 1777977657 | 12.78° C | 99% | 1008 hPa | 1.78 mm | - | 1 W/m² | - |
| 1777977353 | 12.78° C | 99% | 1007.9 hPa | 0 mm | - | 1 W/m² | - |
| 1777977050 | 13.33° C | 99% | 1008.1 hPa | 1.27 mm | - | 0 W/m² | - |
| 1777976748 | 13.33° C | 99% | 1008.2 hPa | 3.05 mm | - | 0 W/m² | - |
| 1777976445 | 13.33° C | 99% | 1008.4 hPa | 3.56 mm | - | 0 W/m² | - |
| 1777976143 | 13.33° C | 99% | 1008.6 hPa | 3.05 mm | - | 0 W/m² | - |
| 1777975839 | 13.33° C | 99% | 1008.7 hPa | 1.27 mm | - | 0 W/m² | - |
| 1777975536 | 13.33° C | 99% | 1008.9 hPa | 1.78 mm | - | 0 W/m² | - |
| 1777975233 | 13.33° C | 98% | 1009 hPa | 1.78 mm | - | 0 W/m² | - |
| 1777974929 | 13.33° C | 98% | 1009.1 hPa | 1.27 mm | - | 0 W/m² | - |
| 1777974626 | 13.33° C | 98% | 1008.9 hPa | 3.05 mm | - | 0 W/m² | - |
| 1777974323 | 13.33° C | 97% | 1009.2 hPa | 3.05 mm | - | 0 W/m² | - |
| 1777974019 | 13.33° C | 97% | 1009 hPa | 3.05 mm | - | 0 W/m² | - |
| 1777973715 | 13.89° C | 96% | 1009.3 hPa | 3.05 mm | - | 0 W/m² | - |
| 1777973413 | 13.89° C | 95% | 1009.4 hPa | 1.27 mm | - | 0 W/m² | - |
| 1777973110 | 13.89° C | 95% | 1009.2 hPa | 1.78 mm | - | 0 W/m² | - |
| 1777972808 | 13.89° C | 94% | 1009 hPa | 1.78 mm | - | 0 W/m² | - |
| 1777972505 | 14.44° C | 93% | 1009.1 hPa | 1.78 mm | - | 0 W/m² | - |
| 1777972203 | 14.44° C | 92% | 1008.6 hPa | 3.05 mm | - | 0 W/m² | - |
* Rain latest hour (hover to see other rain measurements)
** Current wind speed in m/s (hover to see current wind gust speed)